QPF
0.07 0.08 0.08 0.09 0.09 0.07 0.06 0.06 0.06 0.06 0.05 0.04 0.03 0.02 0.02 0.03 0.02 0.02 0.02 0.02 0.01 0.01 0.02 0.03 0.04 0.08 0.13 0.09 0.06 0.05 0.03 0.03 0.03 0.03 0.04 0.05 0.05 0.07
0.06 0.06 0.07 0.07 0.08 0.07 0.06 0.05 0.05 0.04 0.04 0.04 0.05 0.03 0.03 0.02 0.02 0.02 0.03 0.02 0.01 0.01 0.02 0.03 0.03 0.04 0.08 0.08 0.06 0.04 0.02 0.02 0.02 0.02 0.02 0.03 0.05 0.07
0.05 0.05 0.06 0.06 0.06 0.07 0.06 0.05 0.05 0.04 0.04 0.05 0.06 0.04 0.04 0.04 0.03 0.03 0.03 0.03 0.02 0.02 0.02 0.02 0.02 0.02 0.04 0.05 0.04 0.03 0.02 0.02 0.02 0.02 0.02 0.02 0.03 0.05
0.03 0.03 0.05 0.06 0.06 0.06 0.06 0.05 0.05 0.05 0.05 0.05 0.05 0.05 0.05 0.06 0.05 0.05 0.03 0.02 0.02 0.02 0.03 0.02 0.02 0.02 0.03 0.04 0.04 0.03 0.03 0.03 0.02 0.02 0.02 0.02 0.02 0.03
0.03 0.03 0.04 0.05 0.04 0.06 0.06 0.06 0.05 0.05 0.06 0.05 0.06 0.05 0.05 0.05 0.05 0.05 0.03 0.03 0.01 0.02 0.03 0.03 0.03 0.03 0.03 0.03 0.03 0.03 0.03 0.04 0.04 0.03 0.03 0.03 0.03 0.03
0.04 0.04 0.04 0.04 0.04 0.05 0.05 0.06 0.06 0.06 0.05 0.05 0.05 0.05 0.05 0.04 0.05 0.05 0.04 0.03 0.02 0.02 0.03 0.04 0.03 0.04 0.04 0.04 0.03 0.03 0.03 0.03 0.05 0.05 0.04 0.03 0.04 0.05
0.03 0.03 0.02 0.03 0.04 0.04 0.04 0.05 0.06 0.06 0.05 0.05 0.05 0.05 0.05 0.06 0.05 0.05 0.05 0.04 0.03 0.03 0.03 0.04 0.03 0.03 0.04 0.05 0.05 0.04 0.04 0.04 0.04 0.04 0.06 0.05 0.04 0.04
0.03 0.03 0.02 0.02 0.02 0.03 0.03 0.04 0.05 0.05 0.05 0.05 0.05 0.04 0.04 0.04 0.06 0.05 0.05 0.04 0.03 0.03 0.04 0.05 0.04 0.04 0.05 0.05 0.06 0.05 0.04 0.05 0.05 0.05 0.05 0.05 0.05 0.05
0.02 0.02 0.01 0.01 0.03 0.04 0.04 0.04 0.05 0.05 0.06 0.06 0.06 0.05 0.04 0.04 0.05 0.05 0.06 0.05 0.04 0.04 0.04 0.05 0.04 0.04 0.04 0.05 0.06 0.05 0.05 0.04 0.05 0.05 0.05 0.04 0.04 0.05
0.01 0.02 0.02 0.02 0.02 0.03 0.03 0.04 0.05 0.04 0.03 0.03 0.04 0.05 0.05 0.05 0.05 0.05 0.06 0.06 0.05 0.04 0.04 0.05 0.04 0.04 0.04 0.04 0.04 0.04 0.04 0.04 0.04 0.04 0.04 0.04 0.04 0.04
0.03 0.03 0.03 0.03 0.03 0.04 0.03 0.04 0.04 0.02 0.02 0.02 0.02 0.03 0.03 0.04 0.04 0.05 0.05 0.05 0.04 0.04 0.03 0.04 0.04 0.03 0.04 0.03 0.03 0.02 0.02 0.02 0.03 0.03 0.03 0.04 0.04 0.04
0.05 0.05 0.05 0.05 0.05 0.04 0.04 0.04 0.04 0.02 0.02 0.02 0.03 0.02 0.02 0.02 0.02 0.03 0.05 0.05 0.05 0.04 0.03 0.03 0.03 0.03 0.03 0.02 0.02 0.02 0.02 0.02 0.01 0.02 0.02 0.02 0.03 0.02
0.04 0.04 0.05 0.05 0.05 0.05 0.05 0.06 0.04 0.04 0.03 0.03 0.03 0.03 0.03 0.02 0.03 0.02 0.03 0.05 0.05 0.05 0.03 0.03 0.03 0.03 0.03 0.02 0.01 0.01 0.02 0.01 0.01 0.01 0.01 0.01 0.01 0.01
0.03 0.03 0.04 0.05 0.04 0.04 0.05 0.05 0.05 0.04 0.05 0.04 0.03 0.03 0.03 0.03 0.03 0.03 0.04 0.05 0.03 0.03 0.03 0.03 0.02 0.02 0.02 0.02 0.02 0.02 0.01 0.02 0.02 0.01 0.01 0.01 0.01 0.01
0.02 0.03 0.05 0.07 0.06 0.05 0.05 0.05 0.05 0.05 0.05 0.04 0.04 0.03 0.03 0.04 0.04 0.04 0.05 0.06 0.04 0.02 0.03 0.04 0.03 0.03 0.03 0.03 0.02 0.02 0.01 0.01 0.01 0.02 0.02 0.02 0.01 0.01
0.01 0.02 0.05 0.08 0.08 0.08 0.07 0.06 0.05 0.05 0.05 0.05 0.05 0.05 0.04 0.05 0.05 0.06 0.07 0.08 0.04 0.03 0.03 0.04 0.04 0.04 0.04 0.03 0.03 0.02 0.02 0.02 0.02 0.02 0.02 0.02 0.01 0.01
0.01 0.02 0.03 0.05 0.05 0.05 0.05 0.05 0.05 0.05 0.06 0.06 0.06 0.07 0.06 0.05 0.05 0.06 0.08 0.06 0.03 0.02 0.03 0.03 0.02 0.03 0.03 0.03 0.03 0.03 0.03 0.03 0.03 0.02 0.02 0.02 0.02 0.02
0.01 0.02 0.02 0.02 0.03 0.04 0.04 0.04 0.04 0.05 0.05 0.04 0.04 0.04 0.04 0.04 0.05 0.06 0.06 0.04 0.03 0.02 0.02 0.02 0.02 0.02 0.03 0.03 0.03 0.03 0.03 0.03 0.03 0.02 0.02 0.02 0.02 0.02
0.01 0.01 0.01 0.02 0.02 0.03 0.03 0.03 0.03 0.04 0.03 0.03 0.02 0.03 0.03 0.03 0.04 0.05 0.05 0.04 0.02 0.02 0.02 0.03 0.03 0.04 0.03 0.03 0.02 0.02 0.03 0.03 0.04 0.03 0.03 0.03 0.03 0.02
0.01 0.01 0.01 0.01 0.01 0.02 0.03 0.03 0.03 0.03 0.03 0.02 0.02 0.02 0.03 0.04 0.03 0.03 0.04 0.04 0.03 0.02 0.03 0.03 0.03 0.03 0.03 0.03 0.03 0.03 0.02 0.03 0.03 0.03 0.03 0.03 0.02 0.02
0.01 0.01 0.01 0.01 0.01 0.02 0.02 0.02 0.03 0.03 0.03 0.03 0.02 0.03 0.03 0.03 0.03 0.03 0.03 0.03 0.03 0.03 0.04 0.03 0.03 0.03 0.02 0.02 0.03 0.02 0.02 0.01 0.01 0.02 0.02 0.01 0.02 0.02
0.02 0.01 0.01 0.02 0.03 0.04 0.03 0.03 0.02 0.02 0.02 0.03 0.03 0.03 0.03 0.03 0.02 0.02 0.03 0.03 0.03 0.03 0.03 0.03 0.04 0.03 0.03 0.03 0.03 0.03 0.03 0.03 0.01 0.01 0.01 0.01 0.02 0.02
0.03 0.02 0.02 0.02 0.02 0.04 0.05 0.04 0.03 0.03 0.02 0.02 0.02 0.03 0.03 0.03 0.02 0.01 0.02 0.02 0.03 0.03 0.03 0.03 0.03 0.03 0.03 0.04 0.04 0.04 0.03 0.03 0.03 0.02 0.01 0.01 0.01 0.01
MSLP
1014.64 1014.95 1015.31 1015.64 1015.90 1016.05 1016.07 1015.97 1015.79 1015.56 1015.34 1015.18 1015.11 1015.14 1015.22 1015.34 1015.42 1015.42 1015.31 1015.08 1014.75 1014.36 1013.99 1013.69 1013.53 1013.54 1013.76 1014.15 1014.70 1015.34 1016.04 1016.74 1017.41 1018.04 1018.63 1019.18 1019.70 1020.21
1013.82 1014.14 1014.50 1014.87 1015.18 1015.40 1015.50 1015.48 1015.38 1015.22 1015.06 1014.94 1014.90 1014.95 1015.06 1015.20 1015.33 1015.40 1015.37 1015.25 1015.03 1014.76 1014.48 1014.27 1014.16 1014.19 1014.39 1014.73 1015.21 1015.76 1016.35 1016.95 1017.52 1018.06 1018.56 1019.04 1019.51 1019.97
1012.97 1013.27 1013.63 1014.01 1014.36 1014.63 1014.80 1014.87 1014.85 1014.77 1014.68 1014.61 1014.61 1014.68 1014.81 1014.99 1015.16 1015.30 1015.38 1015.37 1015.29 1015.16 1015.02 1014.92 1014.90 1014.99 1015.19 1015.50 1015.90 1016.36 1016.84 1017.31 1017.75 1018.17 1018.56 1018.95 1019.33 1019.73
1012.10 1012.38 1012.73 1013.10 1013.48 1013.80 1014.04 1014.18 1014.24 1014.24 1014.22 1014.20 1014.24 1014.33 1014.49 1014.70 1014.92 1015.12 1015.29 1015.40 1015.46 1015.48 1015.49 1015.52 1015.61 1015.76 1015.99 1016.29 1016.64 1017.01 1017.38 1017.72 1018.04 1018.33 1018.61 1018.89 1019.18 1019.51
1011.25 1011.49 1011.81 1012.18 1012.57 1012.92 1013.22 1013.44 1013.58 1013.65 1013.70 1013.74 1013.81 1013.93 1014.11 1014.33 1014.58 1014.84 1015.08 1015.29 1015.47 1015.62 1015.77 1015.93 1016.12 1016.35 1016.62 1016.92 1017.24 1017.55 1017.83 1018.09 1018.30 1018.49 1018.68 1018.87 1019.10 1019.37
1010.42 1010.62 1010.90 1011.26 1011.65 1012.04 1012.38 1012.66 1012.88 1013.03 1013.14 1013.23 1013.34 1013.48 1013.67 1013.90 1014.16 1014.44 1014.73 1015.00 1015.27 1015.53 1015.78 1016.05 1016.33 1016.63 1016.94 1017.26 1017.57 1017.85 1018.10 1018.30 1018.46 1018.60 1018.74 1018.89 1019.08 1019.32
1009.60 1009.76 1010.01 1010.35 1010.74 1011.15 1011.53 1011.87 1012.15 1012.37 1012.55 1012.69 1012.84 1012.99 1013.18 1013.41 1013.66 1013.94 1014.24 1014.55 1014.86 1015.17 1015.49 1015.82 1016.16 1016.52 1016.88 1017.23 1017.55 1017.85 1018.10 1018.31 1018.48 1018.63 1018.77 1018.93 1019.13 1019.38
1008.82 1008.93 1009.15 1009.47 1009.85 1010.27 1010.68 1011.07 1011.40 1011.69 1011.92 1012.12 1012.29 1012.47 1012.66 1012.87 1013.11 1013.37 1013.66 1013.95 1014.27 1014.59 1014.93 1015.29 1015.66 1016.05 1016.44 1016.83 1017.20 1017.54 1017.85 1018.11 1018.35 1018.56 1018.76 1018.97 1019.22 1019.49
1008.10 1008.17 1008.35 1008.63 1008.99 1009.40 1009.83 1010.24 1010.62 1010.96 1011.24 1011.49 1011.70 1011.90 1012.10 1012.30 1012.52 1012.76 1013.01 1013.28 1013.57 1013.88 1014.20 1014.55 1014.93 1015.33 1015.74 1016.16 1016.59 1016.99 1017.38 1017.74 1018.07 1018.38 1018.68 1018.97 1019.28 1019.61
1007.49 1007.51 1007.64 1007.87 1008.19 1008.57 1008.98 1009.40 1009.80 1010.16 1010.49 1010.77 1011.03 1011.26 1011.47 1011.69 1011.91 1012.13 1012.36 1012.59 1012.85 1013.12 1013.41 1013.73 1014.09 1014.48 1014.90 1015.35 1015.82 1016.30 1016.77 1017.23 1017.67 1018.09 1018.49 1018.88 1019.25 1019.62
1007.06 1007.02 1007.08 1007.24 1007.48 1007.80 1008.16 1008.55 1008.93 1009.30 1009.65 1009.96 1010.25 1010.52 1010.77 1011.01 1011.25 1011.48 1011.70 1011.93 1012.16 1012.40 1012.66 1012.94 1013.27 1013.64 1014.06 1014.52 1015.03 1015.56 1016.10 1016.65 1017.18 1017.69 1018.17 1018.62 1019.04 1019.43
1006.85 1006.73 1006.69 1006.75 1006.89 1007.12 1007.39 1007.71 1008.04 1008.39 1008.72 1009.05 1009.37 1009.67 1009.97 1010.26 1010.53 1010.80 1011.05 1011.29 1011.52 1011.75 1011.98 1012.25 1012.54 1012.88 1013.28 1013.74 1014.25 1014.81 1015.39 1015.99 1016.58 1017.15 1017.68 1018.16 1018.59 1018.98
1006.85 1006.64 1006.49 1006.43 1006.45 1006.54 1006.70 1006.91 1007.16 1007.44 1007.74 1008.05 1008.38 1008.71 1009.06 1009.40 1009.73 1010.06 1010.36 1010.64 1010.90 1011.15 1011.38 1011.63 1011.90 1012.22 1012.59 1013.02 1013.51 1014.06 1014.65 1015.25 1015.86 1016.44 1016.97 1017.45 1017.87 1018.22
1007.01 1006.71 1006.45 1006.26 1006.14 1006.09 1006.11 1006.20 1006.33 1006.52 1006.75 1007.02 1007.34 1007.68 1008.05 1008.44 1008.84 1009.23 1009.60 1009.95 1010.26 1010.54 1010.80 1011.05 1011.31 1011.60 1011.93 1012.32 1012.77 1013.28 1013.83 1014.41 1014.99 1015.54 1016.05 1016.50 1016.88 1017.18
1007.25 1006.86 1006.51 1006.20 1005.95 1005.77 1005.65 1005.60 1005.62 1005.69 1005.83 1006.03 1006.30 1006.62 1007.00 1007.41 1007.86 1008.30 1008.75 1009.16 1009.54 1009.87 1010.17 1010.43 1010.69 1010.96 1011.25 1011.59 1011.98 1012.43 1012.92 1013.44 1013.97 1014.47 1014.94 1015.34 1015.68 1015.94
1007.44 1007.00 1006.58 1006.19 1005.85 1005.56 1005.34 1005.17 1005.06 1005.02 1005.05 1005.16 1005.34 1005.61 1005.95 1006.36 1006.81 1007.30 1007.79 1008.26 1008.70 1009.09 1009.43 1009.73 1009.99 1010.24 1010.50 1010.79 1011.12 1011.50 1011.92 1012.37 1012.84 1013.29 1013.71 1014.07 1014.38 1014.62
1007.49 1007.03 1006.59 1006.18 1005.80 1005.46 1005.16 1004.90 1004.70 1004.55 1004.46 1004.45 1004.53 1004.70 1004.97 1005.32 1005.75 1006.24 1006.75 1007.26 1007.75 1008.19 1008.58 1008.91 1009.20 1009.45 1009.69 1009.93 1010.21 1010.52 1010.88 1011.26 1011.67 1012.07 1012.46 1012.80 1013.10 1013.34
1007.31 1006.89 1006.49 1006.11 1005.75 1005.42 1005.10 1004.80 1004.53 1004.29 1004.09 1003.95 1003.89 1003.94 1004.09 1004.35 1004.71 1005.15 1005.66 1006.18 1006.71 1007.20 1007.64 1008.02 1008.34 1008.61 1008.85 1009.07 1009.31 1009.57 1009.87 1010.20 1010.56 1010.93 1011.30 1011.65 1011.96 1012.23
1006.90 1006.57 1006.26 1005.97 1005.69 1005.41 1005.12 1004.82 1004.50 1004.18 1003.87 1003.60 1003.39 1003.28 1003.29 1003.42 1003.68 1004.05 1004.52 1005.05 1005.60 1006.14 1006.64 1007.09 1007.46 1007.78 1008.04 1008.27 1008.50 1008.73 1008.99 1009.28 1009.61 1009.96 1010.32 1010.68 1011.02 1011.34
1006.33 1006.11 1005.92 1005.75 1005.58 1005.39 1005.16 1004.88 1004.54 1004.15 1003.73 1003.32 1002.95 1002.67 1002.50 1002.48 1002.62 1002.91 1003.33 1003.85 1004.43 1005.04 1005.62 1006.15 1006.61 1007.00 1007.32 1007.59 1007.83 1008.05 1008.29 1008.56 1008.86 1009.19 1009.55 1009.92 1010.29 1010.65
1005.67 1005.57 1005.51 1005.47 1005.42 1005.33 1005.16 1004.90 1004.53 1004.07 1003.54 1002.98 1002.44 1001.98 1001.63 1001.46 1001.46 1001.66 1002.03 1002.56 1003.18 1003.86 1004.55 1005.20 1005.79 1006.28 1006.69 1007.03 1007.30 1007.54 1007.77 1008.02 1008.30 1008.61 1008.95 1009.32 1009.71 1010.10
1005.02 1005.02 1005.08 1005.15 1005.20 1005.18 1005.05 1004.79 1004.38 1003.84 1003.18 1002.47 1001.75 1001.10 1000.59 1000.25 1000.13 1000.25 1000.58 1001.12 1001.81 1002.59 1003.41 1004.20 1004.93 1005.57 1006.10 1006.53 1006.86 1007.14 1007.38 1007.61 1007.85 1008.13 1008.45 1008.80 1009.18 1009.58
1004.45 1004.53 1004.66 1004.81 1004.91 1004.93 1004.80 1004.51 1004.03 1003.38 1002.59 1001.72 1000.83 1000.00 999.31 998.82 998.59 998.64 998.95 999.51 1000.28 1001.17 1002.13 1003.09 1003.99 1004.79 1005.46 1006.00 1006.42 1006.74 1006.99 1007.21 1007.42 1007.66 1007.93 1008.24 1008.60 1008.98
Thickness
5700 5699 5698 5698 5697 5697 5695 5694 5689 5686 5688 5691 5693 5695 5695 5694 5692 5691 5690 5688 5686 5685 5684 5683 5682 5681 5681 5680 5678 5677 5676 5674 5673 5671 5670 5669 5669 5667
5695 5693 5692 5693 5693 5692 5691 5690 5689 5686 5684 5688 5689 5691 5689 5690 5687 5686 5686 5683 5681 5680 5679 5679 5678 5676 5676 5675 5674 5673 5671 5670 5669 5668 5666 5665 5664 5664
5690 5688 5687 5687 5687 5687 5686 5685 5684 5682 5680 5683 5685 5685 5683 5682 5682 5681 5681 5679 5679 5677 5675 5674 5673 5671 5671 5670 5669 5668 5667 5666 5665 5663 5662 5661 5660 5659
5685 5684 5683 5682 5680 5680 5679 5679 5678 5678 5676 5674 5676 5678 5677 5676 5676 5675 5676 5676 5675 5673 5671 5669 5668 5667 5666 5665 5665 5664 5662 5661 5660 5658 5657 5656 5655 5654
5681 5679 5678 5676 5674 5674 5672 5672 5672 5672 5671 5669 5670 5670 5670 5671 5670 5670 5670 5669 5670 5670 5667 5665 5664 5663 5662 5661 5660 5659 5657 5656 5654 5653 5651 5651 5650 5650
5677 5675 5673 5671 5668 5666 5665 5664 5663 5663 5663 5663 5663 5664 5664 5664 5663 5662 5663 5664 5664 5666 5664 5662 5661 5659 5658 5656 5655 5654 5652 5650 5649 5648 5646 5645 5644 5644
5672 5671 5669 5665 5661 5659 5659 5658 5656 5656 5656 5656 5656 5656 5655 5654 5655 5655 5655 5657 5659 5659 5658 5659 5658 5658 5656 5652 5650 5648 5647 5645 5643 5642 5641 5640 5639 5638
5667 5666 5663 5660 5656 5652 5650 5649 5648 5648 5648 5648 5649 5649 5648 5649 5648 5648 5648 5649 5649 5652 5651 5652 5654 5653 5652 5650 5647 5644 5642 5640 5639 5637 5636 5635 5634 5634
5661 5659 5658 5657 5651 5649 5645 5642 5642 5640 5639 5640 5642 5642 5642 5643 5641 5641 5641 5641 5641 5644 5643 5645 5647 5646 5646 5646 5642 5640 5637 5636 5634 5633 5632 5631 5630 5629
5655 5653 5651 5649 5647 5643 5642 5640 5639 5638 5636 5636 5636 5637 5638 5636 5634 5635 5635 5636 5637 5640 5639 5638 5641 5640 5642 5640 5637 5635 5633 5631 5630 5628 5627 5626 5625 5624
5650 5648 5646 5643 5638 5635 5636 5635 5634 5633 5632 5630 5630 5629 5629 5629 5629 5630 5631 5632 5632 5634 5635 5634 5635 5635 5636 5636 5633 5631 5629 5628 5626 5624 5622 5621 5620 5619
5645 5643 5639 5637 5632 5629 5631 5631 5629 5629 5630 5629 5626 5625 5626 5626 5624 5625 5627 5628 5628 5629 5631 5628 5629 5628 5629 5630 5630 5628 5626 5624 5622 5620 5618 5616 5614 5614
5641 5639 5636 5630 5627 5624 5624 5625 5624 5623 5625 5625 5625 5626 5625 5625 5624 5623 5623 5624 5624 5625 5627 5624 5624 5624 5623 5623 5624 5624 5622 5621 5619 5617 5615 5612 5610 5609
5633 5633 5630 5623 5621 5619 5619 5618 5617 5616 5621 5622 5623 5622 5622 5621 5621 5620 5619 5619 5619 5620 5620 5619 5620 5619 5619 5618 5618 5619 5618 5617 5616 5614 5613 5610 5607 5605
5627 5623 5620 5618 5616 5617 5614 5613 5613 5615 5617 5618 5618 5618 5618 5617 5616 5615 5616 5615 5616 5617 5617 5615 5615 5614 5613 5613 5614 5613 5613 5613 5612 5610 5609 5607 5606 5603
5619 5617 5614 5613 5613 5613 5612 5612 5612 5613 5612 5612 5613 5613 5613 5613 5613 5613 5613 5613 5613 5614 5613 5612 5610 5609 5609 5609 5609 5609 5608 5607 5607 5605 5604 5603 5602 5601
5613 5614 5614 5614 5614 5614 5613 5611 5610 5610 5609 5609 5608 5608 5608 5609 5609 5609 5608 5609 5610 5610 5610 5609 5607 5606 5605 5604 5604 5604 5604 5603 5602 5600 5597 5598 5597 5597
5606 5610 5610 5611 5611 5610 5610 5609 5608 5606 5605 5605 5605 5605 5605 5604 5605 5605 5605 5605 5606 5606 5605 5605 5603 5602 5601 5602 5598 5598 5598 5597 5597 5594 5593 5592 5593 5592
5603 5607 5607 5606 5606 5606 5605 5605 5604 5603 5602 5601 5602 5601 5601 5601 5601 5600 5600 5600 5601 5601 5601 5600 5599 5597 5595 5597 5597 5592 5592 5592 5591 5590 5589 5588 5588 5588
5603 5604 5603 5602 5601 5601 5600 5600 5599 5599 5598 5597 5597 5597 5597 5596 5596 5596 5596 5595 5595 5595 5595 5595 5594 5592 5590 5591 5592 5591 5586 5587 5586 5585 5584 5583 5583 5581
5600 5600 5599 5598 5597 5596 5595 5595 5594 5594 5593 5592 5592 5591 5591 5591 5591 5591 5591 5588 5588 5590 5590 5590 5590 5586 5587 5587 5587 5587 5586 5581 5580 5579 5578 5577 5577 5577
5596 5595 5594 5593 5592 5591 5590 5589 5589 5588 5587 5587 5586 5585 5585 5585 5585 5585 5586 5585 5586 5586 5587 5587 5587 5585 5584 5583 5583 5584 5583 5579 5575 5572 5570 5569 5569 5569
5590 5589 5588 5587 5587 5586 5585 5584 5583 5582 5581 5580 5580 5580 5580 5580 5580 5580 5581 5581 5581 5582 5582 5582 5582 5581 5581 5581 5580 5580 5578 5576 5574 5571 5568 5564 5561 5559